Flag for Belgium Weather past 2 weeks in Eupen, Belgium

Now
45 °F

Overcast.


Feels Like: 42 °F
Forecast: 44 / 65 °F
Wind: 6 mph from Northeast

Location: Spa / La Sauveniere


UV Index: 3 (Moderate)

Visibility: 15 mi


Pressure: 30.03 "Hg

Humidity: 65%

Dew point: 34 °F

Location of EupenLocation

Historic Weather in Eupen

°F

Eupen temperature yesterday

Maximum temperature yesterday: 48 °F (at 1:00 AM)
Minimum temperature yesterday: 40 °F (at 8:00 AM)
Average temperature yesterday: 43 °F

Past Weeks' High & Low Weather Summary

 TemperatureHumidityPressure
High64 °F (Apr 7, 5:00 PM)100% (Apr 5, 2:00 AM)30.45 "Hg (Apr 5, 2:00 AM)
Low32 °F (Apr 16, 7:00 AM)25% (Apr 17, 6:00 PM)29.77 "Hg (Apr 4, 11:00 AM)
Average47 °F74%30.12 "Hg
* Reported Apr 4 11:00 AM — Apr 19 11:00 AM, Eupen, Weather by CustomWeather, © 2014

Note: Actual official high and low records may vary slightly from our data, if they occured in-between our weather recording intervals... More about our weather records

Advertising

Historic Weather Conditions — Data for Previous 24 hours

 ConditionsComfort  
Time TempWeatherWind HumidityBarometerVisibility
11:00 AM
Apr 19
45 °FOvercast.6 mph69%30.04 "Hg8 mi
10:00 AM42 °FScattered clouds.5 mph77%30.04 "HgN/A
9:00 AM40 °FSunny.2 mph88%30.04 "HgN/A
8:00 AM36 °FFog.1 mph97%30.05 "Hg3 mi
7:00 AM37 °FLow clouds.2 mph94%30.03 "HgN/A
6:00 AM37 °FLow clouds.1 mph95%30.02 "HgN/A
5:00 AM37 °FFog.2 mph98%30.01 "Hg3 mi
4:00 AM38 °FLow clouds.3 mph95%30.02 "HgN/A
3:00 AM38 °FOvercast.2 mph89%30.02 "Hg7 mi
2:00 AM39 °FOvercast.2 mph87%30.03 "Hg9 mi
1:00 AM39 °FOvercast.2 mph83%30.04 "Hg11 mi
12:00 AM40 °FOvercast.2 mph83%30.03 "Hg11 mi
10:00 PM
Apr 18
43 °FOvercast.5 mph71%30.01 "Hg25 mi
9:00 PM43 °FOvercast.2 mph72%30.00 "Hg25 mi
8:00 PM44 °FPassing clouds.5 mph65%29.99 "Hg25 mi
7:00 PM47 °FOvercast.7 mph51%29.99 "Hg28 mi
6:00 PM46 °FPassing clouds.6 mph50%30.00 "Hg28 mi
5:00 PM47 °FScattered clouds.6 mph45%29.99 "Hg19 mi
4:00 PM48 °FPartly sunny.7 mph49%29.99 "Hg19 mi
3:00 PM46 °FPartly sunny.6 mph57%30.00 "Hg18 mi
2:00 PM44 °FPassing clouds.5 mph63%30.01 "Hg19 mi
1:00 PM46 °FPassing clouds.5 mph64%30.00 "Hg17 mi
12:00 PM42 °FPartly sunny.6 mph77%30.01 "Hg14 mi
Weather by CustomWeather, © 2014

See weather overview